Weather History for Swainsboro, GA

Change the Weather History Date:

Tuesday, November 6, 2012

  Actual Average Record
Temperature  
Mean Temperature 44 °F -  
Max Temperature 53 °F 70 °F 75 °F (2013)
Min Temperature 35 °F 44 °F 50 °F (2013)
Degree Days  
Heating Degree Days 21    
Moisture  
Dew Point 44 °F    
Average Humidity 93    
Maximum Humidity 100    
Minimum Humidity 71    
Precipitation  
Precipitation 0.00 in - - ()
Sea Level Pressure  
Sea Level Pressure 29.96 in    
Wind  
Wind Speed 5 mph ()    
Max Wind Speed 10 mph    
Max Gust Speed -    
Visibility 7.0 miles    
Events Rain    
Averages and records for this station are not official NWS values.
T = Trace of Precipitation, MM = Missing Value Source: Averaged Metar Reports

Daily Weather History Graph

Daily Weather History Graph

Search for Another Location

Airport:

Trip Planner

Search our weather history database for the weather conditions in past years. The results will help you decide how hot, cold, wet, or windy it might be!

Date:

Astronomy

Nov. 06, 2012 Rise Set
Actual Time 6:51 AM EST 5:34 PM EST
Civil Twilight 6:26 AM EST 5:59 PM EST
Nautical Twilight 5:56 AM EST 6:29 PM EST
Astronomical Twilight 5:27 AM EST 6:58 PM EST
Moon No Moon Rise 12:45 PM EST (11/6)
Length of Visible Light 11h 33m
Length of Day
10h 42m
Waning Gibbous, 53% of the Moon is Illuminated
Nov 6
Waning Gibbous
Nov 6
Last Quarter
Nov 13
New
Nov 20
First Quarter
Nov 28
Full

Hourly Weather History & Observations

Time (EST) Temp. Windchill Dew Point Humidity Pressure Visibility Wind Dir Wind Speed Gust Speed Precip Events Conditions
12:15 AM 53.6 °F - 48.2 °F 82% 29.99 in 7.0 mi SE 6.9 mph - N/A   Mostly Cloudy
12:35 AM 53.6 °F - 48.2 °F 82% 29.98 in 7.0 mi ESE 6.9 mph - N/A   Overcast
12:55 AM 53.6 °F - 48.2 °F 82% 29.97 in 10.0 mi ESE 6.9 mph - N/A   Overcast
1:15 AM 53.6 °F - 48.2 °F 82% 29.96 in 1.8 mi ESE 5.8 mph - N/A   Haze
1:35 AM 53.6 °F - 48.2 °F 82% 29.95 in 1.5 mi ESE 6.9 mph - N/A   Haze
1:55 AM 53.6 °F - 46.4 °F 77% 29.97 in 2.0 mi SE 4.6 mph - N/A   Haze
2:15 AM 53.6 °F - 46.4 °F 77% 29.95 in 3.0 mi ESE 6.9 mph - N/A   Drizzle
2:35 AM 53.6 °F - 46.4 °F 77% 29.96 in 4.0 mi East 4.6 mph - N/A   Haze
2:55 AM 53.6 °F - 46.4 °F 77% 29.96 in 4.0 mi ESE 6.9 mph - N/A Rain Rain
3:15 AM 51.8 °F - 48.2 °F 88% 29.95 in 3.0 mi East 5.8 mph - N/A Rain Light Rain
3:35 AM 51.8 °F - 48.2 °F 88% 29.95 in 5.0 mi ESE 3.5 mph - N/A   Light Drizzle
3:55 AM 51.8 °F - 50.0 °F 94% 29.98 in 10.0 mi Calm Calm - N/A Rain Light Rain
4:15 AM 50.0 °F - 50.0 °F 100% 29.99 in 4.0 mi Calm Calm - N/A Rain Rain
4:35 AM 50.0 °F - 50.0 °F 100% 30.00 in 7.0 mi Calm Calm - N/A Rain Rain
4:55 AM 50.0 °F - 50.0 °F 100% 30.00 in 4.0 mi NE 3.5 mph - N/A Rain Rain
5:15 AM 50.0 °F - 50.0 °F 100% 29.98 in 5.0 mi East 9.2 mph - N/A Rain Rain
5:35 AM 50.0 °F - 50.0 °F 100% 29.95 in 7.0 mi East 8.1 mph - N/A Rain Rain
5:55 AM 50.0 °F - 50.0 °F 100% 29.96 in 7.0 mi ESE 8.1 mph - N/A   Overcast
6:15 AM 50.0 °F - 50.0 °F 100% 29.98 in 7.0 mi Calm Calm - N/A Rain Light Rain
6:35 AM 50.0 °F - 50.0 °F 100% 29.96 in 4.0 mi East 4.6 mph - N/A   Light Drizzle
6:55 AM 50.0 °F - 50.0 °F 100% 29.97 in 10.0 mi NE 3.5 mph - N/A   Light Drizzle
7:15 AM 50.0 °F - 50.0 °F 100% 29.97 in 7.0 mi ENE 4.6 mph - N/A Rain Rain
7:35 AM 48.2 °F - 48.2 °F 100% 29.96 in 7.0 mi ENE 4.6 mph - N/A Rain Rain
7:55 AM 48.2 °F - 48.2 °F 100% 29.96 in 5.0 mi ENE 4.6 mph - N/A   Drizzle
8:15 AM 48.2 °F - 48.2 °F 100% 29.96 in 7.0 mi ENE 6.9 mph - N/A   Overcast
8:35 AM 48.2 °F - 48.2 °F 100% 29.95 in 4.0 mi East 8.1 mph - N/A   Drizzle
8:55 AM 48.2 °F - 48.2 °F 100% 29.95 in 5.0 mi ENE 9.2 mph - N/A Rain Rain
9:15 AM 46.4 °F 42.9 °F 46.4 °F 100% 29.95 in 4.0 mi East 6.9 mph - N/A Rain Light Rain
9:35 AM 46.4 °F 41.9 °F 46.4 °F 100% 29.95 in 3.0 mi East 9.2 mph - N/A Rain Light Rain
9:55 AM 46.4 °F 41.5 °F 46.4 °F 100% 29.95 in 4.0 mi East 10.4 mph - N/A Rain Rain
10:15 AM 46.4 °F 42.4 °F 46.4 °F 100% 29.96 in 4.0 mi ENE 8.1 mph - N/A Rain Rain
10:35 AM 46.4 °F 42.9 °F 46.4 °F 100% 29.96 in 4.0 mi NE 6.9 mph - N/A Rain Rain
10:55 AM 46.4 °F 44.3 °F 46.4 °F 100% 29.97 in 5.0 mi ENE 4.6 mph - N/A Rain Light Rain
11:15 AM 46.4 °F 45.2 °F 46.4 °F 100% 29.97 in 7.0 mi NNE 3.5 mph - N/A Rain Rain
11:35 AM 46.4 °F 42.4 °F 46.4 °F 100% 29.96 in 5.0 mi NNE 8.1 mph - N/A   Light Drizzle
11:55 AM 44.6 °F 39.7 °F 44.6 °F 100% 29.96 in 7.0 mi NE 9.2 mph - N/A   Overcast
12:15 PM 44.6 °F 40.7 °F 44.6 °F 100% 29.96 in 7.0 mi NNE 6.9 mph - N/A Rain Rain
12:35 PM 44.6 °F 41.4 °F 44.6 °F 100% 29.96 in 5.0 mi North 5.8 mph - N/A   Drizzle
12:55 PM 46.4 °F 42.4 °F 46.4 °F 100% 29.95 in 7.0 mi NNE 8.1 mph - N/A   Overcast
1:15 PM 46.4 °F 42.9 °F 46.4 °F 100% 29.95 in 10.0 mi NNE 6.9 mph - N/A   Overcast
1:35 PM 46.4 °F 45.2 °F 46.4 °F 100% 29.94 in 10.0 mi North 3.5 mph - N/A   Drizzle
1:55 PM 46.4 °F 42.9 °F 46.4 °F 100% 29.94 in 10.0 mi NE 6.9 mph - N/A   Drizzle
2:15 PM 46.4 °F 43.5 °F 44.6 °F 93% 29.93 in 10.0 mi NE 5.8 mph - N/A   Overcast
2:35 PM 46.4 °F 42.4 °F 44.6 °F 93% 29.93 in 10.0 mi NNE 8.1 mph - N/A   Overcast
2:55 PM 46.4 °F 44.3 °F 44.6 °F 93% 29.93 in 10.0 mi NE 4.6 mph - N/A   Overcast
3:15 PM 46.4 °F 42.9 °F 42.8 °F 87% 29.93 in 10.0 mi NNE 6.9 mph - N/A   Overcast
3:35 PM 48.2 °F - 44.6 °F 87% 29.92 in 10.0 mi NE 8.1 mph - N/A   Overcast
3:55 PM 50.0 °F - 41.0 °F 71% 29.92 in 10.0 mi NE 8.1 mph - N/A   Mostly Cloudy
4:15 PM 48.2 °F - 41.0 °F 76% 29.93 in 10.0 mi ENE 3.5 mph - N/A   Overcast
4:35 PM 50.0 °F - 41.0 °F 71% 29.93 in 10.0 mi ENE 6.9 mph - N/A   Overcast
4:55 PM 48.2 °F - 41.0 °F 76% 29.92 in 10.0 mi NE 8.1 mph - N/A   Mostly Cloudy
5:15 PM 46.4 °F 45.2 °F 39.2 °F 76% 29.93 in 10.0 mi East 3.5 mph - N/A   Clear
5:35 PM 46.4 °F - 39.2 °F 76% 29.93 in 10.0 mi Calm Calm - N/A   Clear
5:55 PM 44.6 °F 43.1 °F 41.0 °F 87% 29.94 in 10.0 mi NE 3.5 mph - N/A   Clear
6:35 PM 44.6 °F - 39.2 °F 81% 29.97 in 10.0 mi Calm Calm - N/A   Clear
6:55 PM 42.8 °F - 39.2 °F 87% 29.97 in 10.0 mi Calm Calm - N/A   Clear
7:15 PM 41.0 °F - 41.0 °F 100% 29.98 in 10.0 mi Calm Calm - N/A   Clear
7:35 PM 37.4 °F - 37.4 °F 100% 29.97 in 7.0 mi Calm Calm - N/A   Clear
7:55 PM 37.4 °F - 37.4 °F 100% 29.97 in 7.0 mi Calm Calm - N/A   Clear
8:15 PM 37.4 °F 34.9 °F 37.4 °F 100% 29.97 in 7.0 mi NNE 3.5 mph - N/A   Clear
8:35 PM 39.2 °F - 39.2 °F 100% 29.96 in 10.0 mi Calm Calm - N/A   Clear
8:55 PM 39.2 °F 35.9 °F 39.2 °F 100% 29.96 in 10.0 mi NE 4.6 mph - N/A   Clear
9:15 PM 41.0 °F 39.0 °F 41.0 °F 100% 29.96 in 10.0 mi NNE 3.5 mph - N/A   Clear
9:35 PM 41.0 °F - 39.2 °F 93% 29.97 in 10.0 mi Calm Calm - N/A   Clear
9:55 PM 37.4 °F - 37.4 °F 100% 29.97 in 7.0 mi Calm Calm - N/A   Scattered Clouds
10:15 PM 37.4 °F - 37.4 °F 100% 29.96 in 7.0 mi Calm Calm - N/A   Clear
10:35 PM 35.6 °F - 35.6 °F 100% 29.96 in 7.0 mi Calm Calm - N/A   Clear
10:55 PM 35.6 °F - 35.6 °F 100% 29.95 in 7.0 mi Calm Calm - N/A   Clear
11:15 PM 35.6 °F - 35.6 °F 100% 29.95 in 5.0 mi Calm Calm - N/A   Clear
11:35 PM 35.6 °F - 35.6 °F 100% 29.95 in 5.0 mi Calm Calm - N/A   Mostly Cloudy
11:55 PM 35.6 °F - 35.6 °F 100% 29.96 in 7.0 mi Calm Calm - N/A   Overcast